• Em Portugal
  • Lista de países
  • Para 7 dias
  • Temperatura da água
  • Mapas de satélite
  • Mapa do tempo
  • Widgets de tempo
  • user-avatar
    Iniciar Sessão

    Previsão horária em Mandalay

    Hoje, 23 Outubro, Segunda-feira

    Tempo Temperatura Precipitação Vento Pressão Humidade
    00:00 +27°C° 0 mm 2 m/s 750 mmHg 83%
    01:00 +27°C° 0 mm 2 m/s 750 mmHg 83%
    02:00 +26°C° 0 mm 2 m/s 750 mmHg 83%
    03:00 +26°C° 0 mm 2 m/s 750 mmHg 83%
    04:00 +26°C° 0 mm 2 m/s 750 mmHg 84%
    05:00 +26°C° 0 mm 1 m/s 750 mmHg 85%
    06:00 +26°C° 0 mm 1 m/s 751 mmHg 86%
    07:00 +28°C° 0,1 mm 2 m/s 751 mmHg 82%
    08:00 +29°C° 0,1 mm 2 m/s 751 mmHg 78%
    09:00 +30°C° 0,1 mm 2 m/s 752 mmHg 74%
    10:00 +31°C° 0,1 mm 3 m/s 751 mmHg 71%
    11:00 +33°C° 0,1 mm 3 m/s 751 mmHg 69%
    12:00 +34°C° 0 mm 3 m/s 750 mmHg 66%
    13:00 +34°C° 0,1 mm 3 m/s 750 mmHg 67%
    14:00 +34°C° 0,1 mm 3 m/s 749 mmHg 67%
    15:00 +34°C° 0,1 mm 3 m/s 749 mmHg 68%
    16:00 +31°C° 0,1 mm 2 m/s 749 mmHg 73%
    17:00 +30°C° 0,1 mm 2 m/s 749 mmHg 78%
    18:00 +28°C° 0,1 mm 1 m/s 750 mmHg 83%
    19:00 +28°C° 0 mm 1 m/s 750 mmHg 84%
    20:00 +28°C° 0 mm 1 m/s 751 mmHg 86%
    21:00 +27°C° 0 mm 1 m/s 751 mmHg 87%
    22:00 +27°C° 0 mm 1 m/s 752 mmHg 88%
    23:00 +26°C° 0 mm 1 m/s 752 mmHg 88%

    Amanhã, 24 Outubro, Terça-feira

    Tempo Temperatura Precipitação Vento Pressão Humidade
    00:00 +26°C° 0 mm 1 m/s 752 mmHg 89%
    01:00 +26°C° 0 mm 1 m/s 752 mmHg 89%
    02:00 +26°C° 0 mm 1 m/s 752 mmHg 89%
    03:00 +25°C° 0 mm 1 m/s 752 mmHg 90%
    04:00 +25°C° 0,1 mm 1 m/s 752 mmHg 89%
    05:00 +25°C° 0,1 mm 1 m/s 752 mmHg 89%
    06:00 +25°C° 0,1 mm 1 m/s 753 mmHg 89%
    07:00 +27°C° 0,1 mm 1 m/s 753 mmHg 83%
    08:00 +29°C° 0,1 mm 1 m/s 754 mmHg 77%
    09:00 +31°C° 0,1 mm 2 m/s 754 mmHg 71%
    10:00 +32°C° 0,1 mm 2 m/s 753 mmHg 67%
    11:00 +34°C° 0,1 mm 2 m/s 753 mmHg 64%
    12:00 +35°C° 0,1 mm 2 m/s 752 mmHg 60%
    13:00 +34°C° 0,1 mm 2 m/s 752 mmHg 62%
    14:00 +34°C° 0,1 mm 2 m/s 751 mmHg 63%
    15:00 +34°C° 0,1 mm 2 m/s 750 mmHg 64%
    16:00 +32°C° 0,3 mm 1 m/s 751 mmHg 69%
    17:00 +30°C° 0,3 mm 1 m/s 751 mmHg 74%
    18:00 +29°C° 0,3 mm 1 m/s 751 mmHg 79%
    19:00 +28°C° 0,1 mm 1 m/s 752 mmHg 81%
    20:00 +28°C° 0,1 mm 1 m/s 752 mmHg 82%
    21:00 +27°C° 0,1 mm 1 m/s 753 mmHg 84%
    22:00 +27°C° 0 mm 1 m/s 753 mmHg 85%
    23:00 +27°C° 0 mm 1 m/s 753 mmHg 86%

    Depois de amanhã, 25 Outubro, Quarta-feira

    Tempo Temperatura Precipitação Vento Pressão Humidade
    00:00 +26°C° 0 mm 1 m/s 753 mmHg 86%
    01:00 +26°C° 0,1 mm 1 m/s 753 mmHg 87%
    02:00 +26°C° 0,1 mm 1 m/s 753 mmHg 88%
    03:00 +26°C° 0,1 mm 1 m/s 753 mmHg 88%
    04:00 +26°C° 0,1 mm 1 m/s 753 mmHg 88%
    05:00 +25°C° 0,1 mm 1 m/s 753 mmHg 89%
    06:00 +25°C° 0,1 mm 1 m/s 754 mmHg 89%
    07:00 +27°C° 0,2 mm 1 m/s 754 mmHg 83%
    08:00 +29°C° 0,2 mm 1 m/s 755 mmHg 78%
    09:00 +31°C° 0,2 mm 1 m/s 755 mmHg 72%
    10:00 +31°C° 0,3 mm 1 m/s 755 mmHg 69%
    11:00 +32°C° 0,3 mm 2 m/s 754 mmHg 67%
    12:00 +34°C° 0,3 mm 2 m/s 753 mmHg 64%
    13:00 +33°C° 0,3 mm 1 m/s 753 mmHg 65%
    14:00 +32°C° 0,3 mm 1 m/s 752 mmHg 66%
    15:00 +32°C° 0,3 mm 1 m/s 752 mmHg 68%
    16:00 +31°C° 0,2 mm 1 m/s 752 mmHg 71%
    17:00 +30°C° 0,2 mm 1 m/s 752 mmHg 75%
    18:00 +28°C° 0,2 mm 1 m/s 752 mmHg 79%
    19:00 +28°C° 0,1 mm 1 m/s 753 mmHg 80%
    20:00 +28°C° 0,1 mm 1 m/s 753 mmHg 82%
    21:00 +27°C° 0,1 mm 1 m/s 754 mmHg 83%
    22:00 +27°C° 0 mm 1 m/s 754 mmHg 83%
    23:00 +27°C° 0 mm 1 m/s 753 mmHg 84%

    26 Outubro, Quinta-feira

    Tempo Temperatura Precipitação Vento Pressão Humidade
    00:00 +26°C° 0 mm 1 m/s 753 mmHg 85%
    01:00 +26°C° 0 mm 1 m/s 753 mmHg 86%
    02:00 +26°C° 0 mm 1 m/s 753 mmHg 86%
    03:00 +26°C° 0 mm 1 m/s 753 mmHg 87%
    04:00 +26°C° 0 mm 1 m/s 753 mmHg 87%
    05:00 +26°C° 0 mm 1 m/s 754 mmHg 88%
    06:00 +26°C° 0 mm 1 m/s 754 mmHg 88%
    07:00 +27°C° 0,1 mm 1 m/s 755 mmHg 83%
    08:00 +29°C° 0,1 mm 1 m/s 755 mmHg 77%
    09:00 +29°C° 0,1 mm 0 m/s 755 mmHg 72%
    10:00 +31°C° 0,2 mm 1 m/s 755 mmHg 69%
    11:00 +32°C° 0,2 mm 1 m/s 754 mmHg 66%
    12:00 +34°C° 0,2 mm 2 m/s 753 mmHg 63%
    13:00 +34°C° 0,1 mm 2 m/s 752 mmHg 63%
    14:00 +33°C° 0,1 mm 1 m/s 752 mmHg 64%
    15:00 +33°C° 0,1 mm 1 m/s 751 mmHg 64%
    16:00 +31°C° 0 mm 1 m/s 751 mmHg 69%
    17:00 +30°C° 0 mm 1 m/s 751 mmHg 74%
    18:00 +28°C° 0 mm 1 m/s 752 mmHg 79%
    19:00 +28°C° 0 mm 1 m/s 752 mmHg 81%
    20:00 +27°C° 0 mm 1 m/s 753 mmHg 82%
    21:00 +27°C° 0 mm 1 m/s 753 mmHg 83%
    22:00 +26°C° 0 mm 1 m/s 753 mmHg 84%
    23:00 +26°C° 0 mm 1 m/s 753 mmHg 85%

    27 Outubro, Sexta-feira

    Tempo Temperatura Precipitação Vento Pressão Humidade
    00:00 +26°C° 0 mm 1 m/s 753 mmHg 86%
    01:00 +26°C° 0 mm 1 m/s 752 mmHg 86%
    02:00 +25°C° 0 mm 1 m/s 752 mmHg 87%
    03:00 +25°C° 0 mm 1 m/s 752 mmHg 87%
    04:00 +25°C° 0 mm 1 m/s 753 mmHg 87%
    05:00 +25°C° 0 mm 1 m/s 753 mmHg 88%
    06:00 +25°C° 0 mm 1 m/s 753 mmHg 88%
    07:00 +27°C° 0 mm 1 m/s 754 mmHg 82%
    08:00 +29°C° 0 mm 1 m/s 754 mmHg 75%
    09:00 +31°C° 0 mm 1 m/s 754 mmHg 69%
    10:00 +32°C° 0 mm 1 m/s 753 mmHg 66%
    11:00 +32°C° 0 mm 1 m/s 753 mmHg 63%
    12:00 +34°C° 0 mm 2 m/s 752 mmHg 60%
    13:00 +34°C° 0 mm 2 m/s 751 mmHg 61%
    14:00 +34°C° 0 mm 2 m/s 751 mmHg 61%
    15:00 +34°C° 0 mm 2 m/s 750 mmHg 62%
    16:00 +31°C° 0 mm 1 m/s 750 mmHg 68%
    17:00 +29°C° 0 mm 1 m/s 751 mmHg 74%
    18:00 +28°C° 0 mm 1 m/s 751 mmHg 79%
    19:00 +27°C° 0 mm 1 m/s 751 mmHg 80%
    20:00 +27°C° 0 mm 1 m/s 752 mmHg 82%
    21:00 +26°C° 0 mm 1 m/s 752 mmHg 83%
    22:00 +26°C° 0 mm 1 m/s 752 mmHg 84%
    23:00 +26°C° 0 mm 1 m/s 752 mmHg 84%

    28 Outubro, Sábado

    Tempo Temperatura Precipitação Vento Pressão Humidade
    00:00 +26°C° 0 mm 1 m/s 752 mmHg 85%
    01:00 +25°C° 0 mm 1 m/s 752 mmHg 85%
    02:00 +25°C° 0 mm 1 m/s 752 mmHg 86%
    03:00 +25°C° 0 mm 1 m/s 752 mmHg 87%
    04:00 +25°C° 0 mm 1 m/s 752 mmHg 87%
    05:00 +25°C° 0 mm 1 m/s 753 mmHg 88%
    06:00 +25°C° 0 mm 1 m/s 753 mmHg 89%
    07:00 +27°C° 0 mm 1 m/s 753 mmHg 82%
    08:00 +29°C° 0 mm 1 m/s 754 mmHg 76%
    09:00 +31°C° 0 mm 1 m/s 754 mmHg 69%
    10:00 +31°C° 0,1 mm 2 m/s 754 mmHg 67%
    11:00 +32°C° 0,1 mm 2 m/s 753 mmHg 65%
    12:00 +34°C° 0,1 mm 2 m/s 752 mmHg 62%
    13:00 +34°C° 0,4 mm 2 m/s 751 mmHg 64%
    14:00 +34°C° 0,4 mm 2 m/s 751 mmHg 65%
    15:00 +34°C° 0,4 mm 2 m/s 750 mmHg 66%
    16:00 +31°C° 0,2 mm 2 m/s 751 mmHg 71%
    17:00 +30°C° 0,2 mm 1 m/s 751 mmHg 75%
    18:00 +28°C° 0,2 mm 1 m/s 752 mmHg 80%
    19:00 +28°C° 0,1 mm 1 m/s 752 mmHg 81%
    20:00 +25°C° 0,1 mm 0 m/s 752 mmHg 82%
    21:00 +25°C° 0,1 mm 0 m/s 753 mmHg 83%
    22:00 +25°C° 0,3 mm 0 m/s 753 mmHg 83%
    23:00 +25°C° 0,3 mm 0 m/s 753 mmHg 83%

    29 Outubro, Domingo

    Tempo Temperatura Precipitação Vento Pressão Humidade
    00:00 +24°C° 0,3 mm 0 m/s 753 mmHg 83%
    01:00 +24°C° 0,5 mm 0 m/s 753 mmHg 84%
    02:00 +26°C° 0,5 mm 1 m/s 753 mmHg 84%
    03:00 +26°C° 0,5 mm 1 m/s 753 mmHg 84%
    04:00 +26°C° 0,2 mm 1 m/s 753 mmHg 84%
    05:00 +26°C° 0,2 mm 1 m/s 753 mmHg 85%
    06:00 +26°C° 0,2 mm 1 m/s 754 mmHg 85%
    07:00 +27°C° 0,2 mm 1 m/s 754 mmHg 81%
    08:00 +28°C° 0,2 mm 2 m/s 755 mmHg 78%
    09:00 +30°C° 0,2 mm 2 m/s 755 mmHg 74%
    10:00 +31°C° 0,5 mm 2 m/s 755 mmHg 71%
    11:00 +32°C° 0,5 mm 2 m/s 754 mmHg 67%
    12:00 +34°C° 0,5 mm 2 m/s 753 mmHg 64%
    13:00 +34°C° 0,8 mm 2 m/s 753 mmHg 65%
    14:00 +33°C° 0,8 mm 1 m/s 752 mmHg 66%
    15:00 +32°C° 0,8 mm 1 m/s 752 mmHg 67%
    16:00 +31°C° 0,7 mm 1 m/s 752 mmHg 72%
    17:00 +30°C° 0,7 mm 1 m/s 753 mmHg 76%
    18:00 +28°C° 0,7 mm 1 m/s 753 mmHg 81%
    19:00 +28°C° 0,3 mm 1 m/s 754 mmHg 82%
    20:00 +28°C° 0,3 mm 1 m/s 754 mmHg 83%
    21:00 +27°C° 0,3 mm 2 m/s 754 mmHg 84%
    22:00 +27°C° 0,3 mm 1 m/s 754 mmHg 84%
    23:00 +27°C° 0,3 mm 1 m/s 754 mmHg 84%
    Mostrar mais